星链-11143 [DTC] (STARLINK-11143 [DTC] )

导读 | 豆包AI

STARLINK-11143是美国SpaceX星链卫星互联网项目的卫星,于北京时间2024年6月5日发射入轨,归属美国所有。作为星链低轨星座扩容卫星,它继承星链技术标准,运行在近地轨道,承担全球范围内宽带互联网接入服务,进一步拓展星链星座的覆盖范围与服务容量。

Basic Information
目录编号:
59953
目录名称:
STARLINK-11143
国际标识:
2024-107J
轨道中心:
EARTH
卫星名称:
星链-11143 [DTC]
卫星全名:
星链-11143 [DTC] (STARLINK-11143 [DTC] )
卫星状态:
已陨落 最后检测时间 2026-02-08
发射日期:
2024-06-05 UTC
国别 :
美国 (US)
星等 :
--
Orbit Information
数据来源 国际轨道数据
星历时间: 2026-02-08T19:10:48+0800
轨道信息已过期105天
半长轴: 6574.616km
偏心率: 0.0005778
轨道倾角: 53.132°
近地点辐角 132.826°
升交点赤经 28.499°
平近点角 1.751°
近地点: 192.68km
远地点: 200.278km
周期: 88.423分钟
每日圈数: 16.285356
Detailed Information
固有亮度:
5
最大亮度:
0.3
卫星平台:
Starlink v2.0 mini
覆盖范围:
全球
运营商:
太空探索技术公司
运营商所在国:
美国
制造商(研发单位):
太空探索技术公司
制造商所在国:
美国
使用方式:
暂无
Satellite Introduction
星链(Starlink)计划是由太空探索技术公司(SpaceX)提出的一个巨型低轨卫星互联网星座项目,计划在2019年至2024年间在太空搭建由约1.2万颗卫星组成的“星链”网络,其中1584颗将部署在地球上空550千米处的近地轨道,并从2020年开始工作。该卫星仍在工作。